FW3072 Weather Reports


time (UTC)temp
C
wind
direction
speed
KPH
gust
KPH
rain 1hr
cm
rain 24hr
cm
rain mn
cm
humidity
%
barometer
mb
20260502130203 4 301 9.7 16.1 0.00 0.13 0.00 71 1016.1
20260502123203 3 278 8.0 19.3 0.00 0.13 0.00 73 1016.2
20260502122202 3 307 9.7 16.1 0.00 0.13 0.00 74 1016.2
20260502121202 3 290 8.0 17.7 0.00 0.13 0.00 78 1016.1
20260502120204 3 311 6.4 14.5 0.00 0.13 0.00 80 1016.0
20260502115202 2 269 3.2 6.4 0.00 0.13 0.00 83 1016.2
20260502114203 2 261 0.0 3.2 0.00 0.13 0.00 85 1016.1
20260502113203 2 260 1.6 4.8 0.00 0.13 0.00 86 1016.1
20260502112223 1 287 0.0 4.8 0.00 0.13 0.00 87 1016.1
20260502111205 1 287 1.6 4.8 0.00 0.13 0.00 88 1016.1
20260502110202 0 290 0.0 11.3 0.00 0.13 0.00 87 1015.9
20260502105202 0 299 1.6 4.8 0.00 0.13 0.00 87 1015.8
20260502104202 0 294 1.6 6.4 0.00 0.13 0.00 88 1015.7
20260502103202 0 315 3.2 6.4 0.00 0.13 0.00 88 1015.7
20260502102202 0 300 3.2 8.0 0.00 0.13 0.00 88 1015.5
20260502101202 0 305 1.6 8.0 0.00 0.13 0.00 88 1015.5
20260502100225 0 281 3.2 8.0 0.00 0.13 0.00 88 1015.3
20260502091203 0 289 0.0 0.0 0.00 0.13 0.00 86 1015.3
20260502090202 0 289 0.0 0.0 0.00 0.13 0.00 86 1015.2
20260502071202 1 289 0.0 4.8 0.00 0.13 0.00 83 1014.8
20260502070203 1 288 0.0 4.8 0.00 0.13 0.00 83 1014.9
20260502065202 1 285 1.6 6.4 0.00 0.13 0.00 82 1015.0
20260502064202 1 304 1.6 4.8 0.00 0.13 0.00 81 1014.9
20260502063204 1 304 0.0 1.6 0.00 0.13 0.00 81 1015.0
20260502062202 2 303 1.6 8.0 0.00 0.13 0.00 80 1014.9
20260502061203 2 293 3.2 4.8 0.00 0.13 0.00 80 1014.9
20260502060202 2 293 3.2 6.4 0.00 0.13 0.00 79 1015.0
20260502055202 2 291 1.6 8.0 0.00 0.13 0.00 79 1015.0
20260502054202 2 299 3.2 6.4 0.00 0.13 0.00 79 1015.1
20260502053202 2 296 1.6 8.0 0.00 0.13 0.00 78 1015.1
20260502052224 2 296 1.6 11.3 0.00 0.13 0.00 77 1015.1
20260502051203 3 292 4.8 11.3 0.00 0.13 0.00 77 1014.9
20260502050223 3 295 4.8 11.3 0.00 0.13 0.00 76 1014.9
20260502045203 3 310 6.4 12.9 0.00 0.13 0.00 75 1014.7
20260502044223 3 310 4.8 12.9 0.00 0.13 0.00 74 1014.6
20260502042203 4 302 12.9 19.3 0.00 0.13 0.00 73 1014.2
20260502041202 4 314 8.0 19.3 0.00 0.13 0.00 73 1014.2
20260502040202 4 307 8.0 20.9 0.00 0.13 0.00 74 1014.3
20260502035202 5 310 6.4 12.9 0.00 0.13 0.13 79 1014.2
20260502034202 5 302 1.6 8.0 0.00 0.13 0.13 81 1014.1
20260502033202 5 289 3.2 8.0 0.00 0.13 0.13 81 1014.1
20260502032203 5 295 1.6 11.3 0.00 0.13 0.13 82 1014.0
20260502031223 5 295 3.2 12.9 0.00 0.13 0.13 82 1014.0
20260502030202 5 241 1.6 4.8 0.00 0.13 0.13 82 1014.2
20260502025202 5 297 1.6 3.2 0.00 0.13 0.13 82 1014.2
20260502024204 5 297 0.0 16.1 0.00 0.13 0.13 82 1014.1
20260502023204 5 248 3.2 4.8 0.00 0.13 0.13 82 1014.0
20260502021202 5 279 1.6 4.8 0.00 0.13 0.13 81 1014.0
20260502020202 5 279 1.6 6.4 0.00 0.13 0.13 81 1014.1
20260502014202 5 280 4.8 6.4 0.00 0.13 0.13 81 1013.8
20260502013205 5 266 1.6 6.4 0.00 0.13 0.13 81 1013.7
20260502012202 5 285 3.2 8.0 0.00 0.13 0.13 81 1013.7
20260502011202 5 235 1.6 6.4 0.00 0.13 0.13 82 1013.6
20260502010202 5 290 0.0 8.0 0.00 0.13 0.13 82 1013.5
20260502005202 6 270 3.2 12.9 0.00 0.13 0.13 81 1013.4
20260502004203 6 273 1.6 6.4 0.00 0.13 0.13 81 1013.3
20260502003202 6 277 3.2 8.0 0.00 0.13 0.13 81 1013.1
20260502002201 6 303 1.6 3.2 0.00 0.13 0.13 80 1012.9
20260502001202 6 301 0.0 4.8 0.00 0.13 0.13 79 1012.7
20260502000204 6 283 0.0 6.4 0.00 0.13 0.13 78 1012.7
20260501235203 6 224 0.0 6.4 0.00 0.13 0.13 78 1012.6
20260501234223 7 309 3.2 11.3 0.00 0.15 0.13 77 1012.5
20260501233202 7 283 4.8 11.3 0.00 0.20 0.13 77 1012.4
20260501232203 7 291 3.2 6.4 0.00 0.20 0.13 76 1012.4
20260501231203 7 304 3.2 11.3 0.00 0.20 0.13 75 1012.3
20260501230202 8 251 3.2 11.3 0.00 0.20 0.13 74 1012.2
20260501225203 8 263 3.2 6.4 0.00 0.20 0.13 73 1012.2
20260501224224 8 283 1.6 6.4 0.00 0.20 0.13 73 1012.1
20260501222204 8 241 0.0 6.4 0.00 0.20 0.13 73 1012.1
20260501221202 8 279 1.6 4.8 0.00 0.20 0.13 73 1012.1
20260501220202 8 310 0.0 6.4 0.00 0.20 0.13 72 1012.0
20260501215246 8 321 1.6 4.8 0.00 0.20 0.13 73 1012.0
20260501214207 8 280 4.8 6.4 0.00 0.20 0.13 74 1012.0
20260501213202 8 187 1.6 6.4 0.00 0.20 0.13 78 1012.0
20260501212202 7 169 1.6 6.4 0.00 0.20 0.13 79 1012.0
20260501211204 7 169 1.6 3.2 0.00 0.20 0.13 80 1012.0
20260501210202 7 169 0.0 0.0 0.00 0.20 0.13 81 1011.9
20260501205203 7 169 0.0 0.0 0.00 0.20 0.13 82 1011.9
20260501204202 7 169 0.0 3.2 0.00 0.20 0.13 83 1012.0
20260501203205 7 169 0.0 8.0 0.00 0.20 0.13 84 1011.9
20260501202224 7 186 1.6 6.4 0.00 0.20 0.13 85 1011.9
20260501201223 6 168 1.6 9.7 0.00 0.20 0.13 86 1011.9
20260501200224 6 159 3.2 9.7 0.00 0.20 0.13 86 1012.0
20260501195223 6 180 0.0 6.4 0.00 0.20 0.13 87 1012.1
20260501194224 6 180 3.2 6.4 0.00 0.20 0.13 86 1012.2
20260501193202 6 172 4.8 8.0 0.00 0.20 0.13 88 1012.3
20260501192203 6 292 1.6 4.8 0.00 0.20 0.13 87 1012.5
20260501191227 6 347 0.0 3.2 0.00 0.20 0.13 88 1012.6
20260501190202 5 346 1.6 4.8 0.00 0.20 0.13 88 1012.7
20260501185204 5 348 0.0 4.8 0.03 0.20 0.13 88 1012.9
20260501184204 5 324 4.8 6.4 0.00 0.18 0.10 88 1013.0
20260501183202 5 315 1.6 6.4 0.00 0.18 0.10 88 1013.2
20260501182203 5 315 0.0 3.2 0.00 0.18 0.10 88 1013.1
20260501181204 5 315 0.0 3.2 0.00 0.18 0.10 88 1013.1
20260501180203 5 315 1.6 6.4 0.00 0.18 0.10 88 1013.2
20260501175202 5 313 1.6 6.4 0.03 0.18 0.10 88 1013.2
20260501174225 5 326 0.0 3.2 0.03 0.18 0.10 87 1013.1
20260501173203 5 327 0.0 3.2 0.03 0.18 0.10 87 1013.1
20260501171202 5 327 1.6 8.0 0.03 0.18 0.10 87 1013.3
20260501170203 5 291 1.6 4.8 0.00 0.15 0.08 86 1013.3
20260501165203 5 260 1.6 3.2 0.05 0.13 0.05 86 1013.4
20260501164223 5 260 1.6 4.8 0.05 0.13 0.05 86 1013.4
20260501163224 6 261 0.0 4.8 0.05 0.13 0.05 85 1013.4
20260501162224 6 261 1.6 4.8 0.03 0.10 0.03 85 1013.3
20260501161202 5 263 0.0 3.2 0.03 0.10 0.03 84 1013.4
20260501160202 6 262 3.2 4.8 0.03 0.10 0.03 83 1013.5
20260501155223 6 260 0.0 6.4 0.00 0.08 0.00 82 1013.5
20260501154226 6 281 0.0 4.8 0.00 0.08 0.00 81 1013.6
20260501153202 6 281 1.6 6.4 0.00 0.08 0.00 79 1013.6
20260501152203 6 267 3.2 9.7 0.00 0.08 0.00 78 1013.6
20260501151202 7 288 1.6 4.8 0.00 0.08 0.00 77 1013.5
20260501150203 7 292 1.6 14.5 0.00 0.08 0.00 78 1013.5
20260501145202 7 266 4.8 9.7 0.00 0.08 0.00 78 1013.5
20260501144205 7 272 4.8 9.7 0.00 0.08 0.00 79 1013.5
20260501143202 7 235 1.6 6.4 0.00 0.08 0.00 79 1013.4
20260501142203 7 277 3.2 8.0 0.00 0.08 0.00 81 1013.3
20260501141203 6 292 6.4 11.3 0.00 0.08 0.00 81 1013.4
20260501140203 6 246 1.6 6.4 0.00 0.08 0.00 82 1013.4
20260501135202 6 221 0.0 4.8 0.00 0.08 0.00 82 1013.4
20260501134202 6 221 1.6 4.8 0.00 0.08 0.00 82 1013.5